This is the latest recevied weather packets stored in our database for station/object WA0LM. If no packets are shown the sender has not sent any weather packets the latest 10 day(s).
| Time | Temp. | Humidity | Pressure | Rain* | Wind** | Luminosity | Snow |
|---|---|---|---|---|---|---|---|
| 1777818196 | 12.78° C | 58% | 1006.7 hPa | 0 mm | - | 381 W/m² | - |
| 1777817892 | 12.78° C | 57% | 1006.8 hPa | 0 mm | - | 399 W/m² | - |
| 1777817589 | 12.78° C | 57% | 1006.6 hPa | 0 mm | - | 286 W/m² | - |
| 1777817286 | 12.22° C | 61% | 1006.7 hPa | 0 mm | - | 256 W/m² | - |
| 1777816983 | 12.22° C | 63% | 1006.6 hPa | 0 mm | - | 231 W/m² | - |
| 1777816679 | 12.22° C | 60% | 1006.5 hPa | 0 mm | - | 363 W/m² | - |
| 1777816376 | 11.67° C | 63% | 1006.5 hPa | 0 mm | - | 302 W/m² | - |
| 1777816074 | 11.67° C | 61% | 1006.6 hPa | 0 mm | - | 333 W/m² | - |
| 1777815772 | 11.67° C | 61% | 1006.3 hPa | 0 mm | - | 316 W/m² | - |
| 1777815469 | 11.67° C | 61% | 1006.2 hPa | 0 mm | - | 302 W/m² | - |
| 1777815166 | 11.67° C | 62% | 1006.3 hPa | 0 mm | - | 288 W/m² | - |
| 1777814862 | 11.11° C | 64% | 1006.6 hPa | 0 mm | - | 244 W/m² | - |
| 1777814558 | 11.11° C | 63% | 1006.3 hPa | 0 mm | - | 255 W/m² | - |
| 1777814256 | 10.56° C | 64% | 1006 hPa | 0 mm | - | 108 W/m² | - |
| 1777813953 | 10.56° C | 66% | 1006 hPa | 0 mm | - | 188 W/m² | - |
| 1777813651 | 10.56° C | 66% | 1006.1 hPa | 0 mm | - | 49 W/m² | - |
| 1777813347 | 10.56° C | 70% | 1005.8 hPa | 0 mm | - | 50 W/m² | - |
| 1777813045 | 10.56° C | 67% | 1006 hPa | 0 mm | - | 44 W/m² | - |
| 1777812743 | 10° C | 69% | 1005.8 hPa | 0 mm | - | 44 W/m² | - |
| 1777812438 | 10° C | 69% | 1005.9 hPa | 0 mm | - | 91 W/m² | - |
| 1777812137 | 9.44° C | 71% | 1005.9 hPa | 0 mm | - | 45 W/m² | - |
| 1777811835 | 9.44° C | 72% | 1005.7 hPa | 0 mm | - | 55 W/m² | - |
| 1777811533 | 9.44° C | 70% | 1005.6 hPa | 0 mm | - | 75 W/m² | - |
| 1777811229 | 8.89° C | 72% | 1005.7 hPa | 0 mm | - | 67 W/m² | - |
| 1777810926 | 8.89° C | 74% | 1005.7 hPa | 0 mm | - | 44 W/m² | - |
* Rain latest hour (hover to see other rain measurements)
** Current wind speed in m/s (hover to see current wind gust speed)